N48MQ KBDR-KORH

Flight info

Callsign N48MQ
Flight time N/A
Altitude 7500
Route KBDR KORH
Aircraft M20P/L-VGDW/C

Departure

Time 2026-04-29 22:55
Airport Igor I Sikorsky Memorial Airport (KBDR)

Arrival

Time N/A
Airport Worcester Regional Airport (KORH)
Time Latitude Longitude Altitude Speed Heading
2026-04-29 22:48 41.16638 -73.12375 5 ft 0 kts 192°
2026-04-29 22:49 41.16628 -73.12380 5 ft 5 kts 206°
2026-04-29 22:49 41.16615 -73.12384 5 ft 0 kts 187°
2026-04-29 22:53 41.16612 -73.12384 5 ft 2 kts 181°
2026-04-29 22:53 41.16585 -73.12314 5 ft 13 kts 99°
2026-04-29 22:53 41.16581 -73.12269 5 ft 6 kts 95°
2026-04-29 22:53 41.16618 -73.12193 5 ft 18 kts 44°
2026-04-29 22:54 41.16652 -73.12077 5 ft 3 kts 123°
2026-04-29 22:54 41.16651 -73.12074 5 ft 1 kts 123°
2026-04-29 22:54 41.16625 -73.12028 5 ft 9 kts 133°
2026-04-29 22:55 41.16556 -73.12071 5 ft 26 kts 223°
2026-04-29 22:55 41.16251 -73.12464 5 ft 91 kts 225°
2026-04-29 22:55 41.15823 -73.13110 424 ft 82 kts 231°
2026-04-29 22:55 41.15533 -73.13805 669 ft 95 kts 256°
2026-04-29 22:56 41.15699 -73.14579 1074 ft 93 kts 298°
2026-04-29 22:56 41.16152 -73.15160 1473 ft 97 kts 332°
2026-04-29 22:56 41.16849 -73.15144 1788 ft 110 kts 26°
2026-04-29 22:56 41.17356 -73.14414 2144 ft 111 kts 66°
2026-04-29 22:57 41.17644 -73.13433 2455 ft 117 kts 68°
2026-04-29 22:57 41.18062 -73.12463 2766 ft 124 kts 59°
2026-04-29 22:57 41.18574 -73.11537 3069 ft 128 kts 51°
2026-04-29 22:57 41.19166 -73.10629 3372 ft 132 kts 50°
2026-04-29 22:58 41.19706 -73.09631 3675 ft 134 kts 61°
2026-04-29 22:58 41.20137 -73.08540 3974 ft 135 kts 67°
2026-04-29 22:58 41.20533 -73.07413 4272 ft 136 kts 70°
2026-04-29 22:58 41.20910 -73.06264 4570 ft 137 kts 68°
2026-04-29 22:59 41.21378 -73.05144 4871 ft 138 kts 55°
2026-04-29 22:59 41.22030 -73.04205 5170 ft 139 kts 43°
2026-04-29 22:59 41.22763 -73.03384 5465 ft 139 kts 38°
2026-04-29 22:59 41.23533 -73.02599 5763 ft 139 kts 37°
2026-04-29 23:00 41.24306 -73.01840 6059 ft 139 kts 36°
2026-04-29 23:00 41.25080 -73.01093 6353 ft 138 kts 36°
2026-04-29 23:00 41.25864 -73.00342 6651 ft 138 kts 36°
2026-04-29 23:00 41.26631 -72.99608 6944 ft 137 kts 36°
2026-04-29 23:01 41.27415 -72.98860 7245 ft 139 kts 36°
2026-04-29 23:01 41.28217 -72.98093 7482 ft 148 kts 36°
2026-04-29 23:01 41.29103 -72.97243 7512 ft 168 kts 37°
2026-04-29 23:01 41.30100 -72.96285 7509 ft 183 kts 37°
2026-04-29 23:02 41.31159 -72.95271 7505 ft 192 kts 37°
2026-04-29 23:02 41.32263 -72.94215 7502 ft 198 kts 37°
2026-04-29 23:02 41.33385 -72.93140 7499 ft 198 kts 37°
2026-04-29 23:02 41.34489 -72.92084 7496 ft 193 kts 37°
2026-04-29 23:03 41.35558 -72.91060 7497 ft 189 kts 38°
2026-04-29 23:03 41.36631 -72.90031 7498 ft 187 kts 38°
2026-04-29 23:03 41.37681 -72.89024 7498 ft 186 kts 38°
2026-04-29 23:03 41.38720 -72.88027 7498 ft 185 kts 38°
2026-04-29 23:04 41.39756 -72.87032 7499 ft 184 kts 38°
2026-04-29 23:04 41.40794 -72.86036 7499 ft 183 kts 38°
2026-04-29 23:04 41.41819 -72.85052 7499 ft 183 kts 39°
2026-04-29 23:04 41.42858 -72.84054 7499 ft 183 kts 39°
2026-04-29 23:05 41.43886 -72.83064 7499 ft 182 kts 39°
2026-04-29 23:05 41.44915 -72.82076 7499 ft 182 kts 39°
2026-04-29 23:05 41.45945 -72.81084 7499 ft 182 kts 39°
2026-04-29 23:05 41.46963 -72.80104 7499 ft 182 kts 39°
2026-04-29 23:06 41.47989 -72.79116 7499 ft 182 kts 39°
2026-04-29 23:06 41.49013 -72.78130 7500 ft 182 kts 39°
2026-04-29 23:06 41.50035 -72.77145 7500 ft 182 kts 39°
2026-04-29 23:06 41.51060 -72.76157 7500 ft 182 kts 39°
2026-04-29 23:07 41.52083 -72.75172 7500 ft 182 kts 39°
2026-04-29 23:07 41.53105 -72.74187 7500 ft 182 kts 39°